DW2453 Weather Reports


Display with metric or nautical units.
time (UTC)temp
F
wind
direction
speed
MPH
gust
MPH
rain 1hr
in
rain 24hr
in
rain mn
in
humidity
%
barometer
mb
20210727210830 89 142 0.0 5.0 0.00 0.01 0.00 35 1016.5
20210727210330 89 142 0.0 4.0 0.00 0.01 0.00 37 1016.6
20210727205830 89 142 1.0 7.0 0.00 0.01 0.00 35 1016.4
20210727205330 90 140 0.0 6.0 0.00 0.01 0.00 36 1016.3
20210727204830 89 140 4.0 8.0 0.00 0.01 0.00 37 1016.2
20210727204330 89 140 2.0 5.0 0.00 0.01 0.00 35 1016.2
20210727203830 89 140 4.0 6.0 0.00 0.01 0.00 37 1016.1
20210727203331 88 140 0.0 2.0 0.00 0.01 0.00 37 1016.0
20210727202830 88 140 1.0 6.0 0.00 0.01 0.00 38 1016.1
20210727202330 88 140 4.0 4.0 0.00 0.01 0.00 36 1016.3
20210727201830 87 140 0.0 3.0 0.00 0.01 0.00 35 1016.3
20210727201330 87 140 0.0 4.0 0.00 0.01 0.00 36 1016.3
20210727200830 87 140 2.0 5.0 0.00 0.01 0.00 36 1016.3
20210727200330 87 140 0.0 4.0 0.00 0.01 0.00 40 1016.2
20210727195830 86 140 0.0 2.0 0.00 0.01 0.00 40 1016.4
20210727195330 86 140 0.0 4.0 0.00 0.01 0.00 39 1016.3
20210727194830 86 140 4.0 4.0 0.00 0.01 0.00 43 1016.2
20210727194330 85 140 0.0 4.0 0.00 0.01 0.00 42 1016.4
20210727193830 85 140 4.0 5.0 0.00 0.01 0.00 42 1016.4
20210727193330 84 140 1.0 4.0 0.00 0.01 0.00 44 1016.5
20210727192830 84 140 0.0 3.0 0.00 0.01 0.00 44 1016.5
20210727192330 83 140 1.0 1.0 0.00 0.01 0.00 43 1016.5
20210727191830 83 140 1.0 3.0 0.00 0.01 0.00 44 1016.5
20210727191330 82 140 0.0 6.0 0.00 0.01 0.00 47 1016.7
20210727190830 82 140 3.0 4.0 0.00 0.01 0.00 47 1016.6
20210727190330 82 140 0.0 2.0 0.00 0.01 0.00 47 1016.6
20210727185830 81 140 0.0 4.0 0.00 0.01 0.00 47 1016.7
20210727185330 81 140 0.0 2.0 0.00 0.01 0.00 47 1016.6
20210727184830 81 140 0.0 1.0 0.00 0.01 0.00 50 1016.6
20210727184330 80 140 0.0 2.0 0.00 0.01 0.00 49 1016.7
20210727183830 80 140 0.0 0.0 0.00 0.01 0.00 50 1016.7
20210727183330 80 140 0.0 0.0 0.00 0.01 0.00 51 1016.7
20210727182831 79 140 0.0 1.0 0.00 0.01 0.00 51 1016.8
20210727182330 79 140 0.0 1.0 0.00 0.01 0.00 50 1016.9
20210727181830 79 140 0.0 0.0 0.00 0.01 0.00 51 1016.9
20210727181330 78 140 0.0 0.0 0.00 0.01 0.00 52 1017.0
20210727180830 78 140 0.0 0.0 0.00 0.01 0.00 53 1017.0
20210727180330 77 140 0.0 2.0 0.00 0.01 0.00 54 1017.1
20210727175830 77 140 0.0 0.0 0.00 0.01 0.00 53 1017.2
20210727175330 77 140 0.0 3.0 0.00 0.01 0.00 53 1017.2
20210727174830 77 140 0.0 1.0 0.00 0.01 0.00 54 1017.4
20210727174330 77 140 0.0 1.0 0.00 0.01 0.00 54 1017.4
20210727173830 77 140 0.0 1.0 0.00 0.01 0.00 55 1017.4
20210727173330 76 140 0.0 1.0 0.00 0.01 0.00 55 1017.5
20210727172830 76 140 0.0 3.0 0.00 0.01 0.00 56 1017.4
20210727172330 76 140 0.0 1.0 0.00 0.01 0.00 56 1017.3
20210727171830 76 140 0.0 1.0 0.00 0.01 0.00 57 1017.3
20210727171330 76 140 0.0 2.0 0.00 0.01 0.00 56 1017.4
20210727170830 76 140 0.0 3.0 0.00 0.01 0.00 56 1017.3
20210727170330 76 140 0.0 2.0 0.00 0.01 0.00 55 1017.3
20210727165830 76 140 1.0 3.0 0.00 0.01 0.00 55 1017.2
20210727165330 76 140 0.0 5.0 0.00 0.01 0.00 56 1017.3
20210727164830 76 140 0.0 1.0 0.00 0.01 0.00 56 1017.2
20210727164330 76 140 0.0 1.0 0.00 0.01 0.00 56 1017.2
20210727163830 76 140 0.0 0.0 0.00 0.01 0.00 56 1017.1
20210727163330 76 140 0.0 1.0 0.00 0.01 0.00 55 1017.1
20210727162830 75 140 0.0 1.0 0.00 0.01 0.00 57 1017.0
20210727162330 75 140 0.0 0.0 0.00 0.01 0.00 59 1017.1
20210727161830 75 140 0.0 3.0 0.00 0.01 0.00 57 1017.0
20210727161330 74 140 0.0 3.0 0.00 0.01 0.00 57 1016.9
20210727160830 74 140 2.0 2.0 0.00 0.01 0.00 59 1017.0
20210727160330 74 140 0.0 0.0 0.00 0.01 0.00 60 1016.9
20210727155830 74 140 0.0 1.0 0.00 0.01 0.00 60 1016.9
20210727155330 74 140 0.0 1.0 0.00 0.01 0.00 60 1017.0
20210727154830 73 140 0.0 0.0 0.00 0.01 0.00 60 1017.0
20210727154330 73 140 0.0 0.0 0.00 0.01 0.00 60 1016.9
20210727153830 73 140 0.0 1.0 0.00 0.01 0.00 61 1016.9
20210727153330 73 140 0.0 2.0 0.00 0.01 0.00 62 1017.0
20210727152830 73 140 0.0 3.0 0.00 0.01 0.00 61 1017.0
20210727152330 73 140 0.0 1.0 0.00 0.01 0.00 61 1017.0
20210727151831 72 140 0.0 0.0 0.00 0.01 0.00 61 1017.0
20210727151330 72 140 0.0 3.0 0.00 0.01 0.00 62 1017.1
20210727150830 72 140 0.0 2.0 0.00 0.01 0.00 63 1017.0
20210727150330 71 140 0.0 4.0 0.00 0.01 0.00 63 1016.9
20210727145830 71 140 0.0 2.0 0.00 0.01 0.00 64 1016.9
20210727145330 71 140 2.0 5.0 0.00 0.01 0.00 65 1017.0
20210727144830 71 140 0.0 2.0 0.00 0.01 0.00 65 1016.9
20210727144330 70 140 0.0 3.0 0.00 0.01 0.00 66 1016.9
20210727143830 70 140 1.0 3.0 0.00 0.01 0.00 66 1017.0
20210727143330 70 140 0.0 1.0 0.00 0.01 0.00 66 1016.9
20210727142830 70 140 0.0 3.0 0.00 0.01 0.00 66 1016.8
20210727142330 70 140 0.0 3.0 0.00 0.01 0.00 66 1016.9
20210727141830 70 140 0.0 0.0 0.00 0.01 0.00 66 1016.9
20210727141330 70 140 0.0 0.0 0.00 0.01 0.00 66 1016.9
20210727140830 69 140 0.0 0.0 0.00 0.01 0.00 66 1016.8
20210727140330 69 140 0.0 1.0 0.00 0.01 0.00 66 1016.6
20210727135830 69 140 0.0 2.0 0.00 0.01 0.00 66 1016.6
20210727135330 69 140 1.0 3.0 0.00 0.01 0.00 65 1016.7
20210727134830 69 140 1.0 3.0 0.00 0.01 0.00 66 1016.7
20210727134330 69 140 0.0 2.0 0.00 0.01 0.00 66 1016.6
20210727133830 69 140 0.0 1.0 0.00 0.01 0.00 65 1016.7
20210727133330 69 140 0.0 2.0 0.00 0.01 0.00 65 1016.8
20210727132830 69 140 0.0 3.0 0.00 0.01 0.00 65 1016.9
20210727132330 69 140 0.0 3.0 0.00 0.01 0.00 64 1016.8
20210727131830 69 140 0.0 3.0 0.00 0.01 0.00 64 1016.9
20210727131330 69 140 0.0 2.0 0.00 0.01 0.00 64 1017.0
20210727130830 69 140 1.0 4.0 0.00 0.01 0.00 64 1017.0
20210727130330 69 140 2.0 4.0 0.00 0.01 0.00 64 1017.0
20210727125830 69 140 2.0 3.0 0.00 0.01 0.00 64 1017.1
20210727125330 69 140 0.0 4.0 0.00 0.01 0.00 64 1017.2
20210727124830 70 140 0.0 6.0 0.00 0.01 0.00 64 1017.0
20210727124330 70 140 3.0 3.0 0.00 0.01 0.00 64 1016.9
20210727123830 70 140 2.0 4.0 0.00 0.01 0.00 64 1017.0
20210727123330 70 140 0.0 2.0 0.00 0.01 0.00 64 1017.1
20210727122830 70 140 0.0 3.0 0.00 0.01 0.00 64 1017.1
20210727122330 70 140 1.0 5.0 0.00 0.01 0.00 64 1017.2
20210727121830 70 140 0.0 4.0 0.00 0.01 0.00 64 1017.0
20210727121330 70 140 0.0 6.0 0.00 0.01 0.00 64 1017.0
20210727120830 70 140 0.0 4.0 0.00 0.01 0.00 64 1017.0
20210727120330 70 140 2.0 2.0 0.00 0.01 0.00 64 1017.1
20210727115830 70 140 0.0 5.0 0.00 0.01 0.00 63 1017.0
20210727115330 70 140 2.0 5.0 0.00 0.01 0.00 64 1017.1
20210727114830 69 140 0.0 3.0 0.00 0.01 0.00 64 1017.1
20210727114330 69 140 0.0 1.0 0.00 0.01 0.00 65 1017.1
20210727113830 69 140 0.0 2.0 0.00 0.01 0.00 65 1017.1
20210727113330 69 140 0.0 0.0 0.00 0.01 0.00 65 1017.1
20210727112830 68 140 0.0 0.0 0.00 0.01 0.00 66 1017.2
20210727112330 68 140 0.0 0.0 0.00 0.01 0.00 68 1017.3
20210727111830 68 140 0.0 0.0 0.00 0.01 0.00 69 1017.1
20210727111330 68 140 0.0 0.0 0.00 0.01 0.00 71 1017.2
20210727110830 68 140 0.0 0.0 0.00 0.01 0.00 72 1017.2
20210727110330 68 140 0.0 0.0 0.00 0.01 0.00 73 1017.3
20210727105830 68 140 0.0 0.0 0.00 0.01 0.00 73 1017.2
20210727105330 68 140 0.0 0.0 0.00 0.01 0.00 73 1017.3
20210727104830 68 140 0.0 0.0 0.00 0.01 0.00 72 1017.3
20210727104330 68 140 0.0 0.0 0.00 0.01 0.00 72 1017.4
20210727103830 68 140 0.0 0.0 0.00 0.01 0.00 71 1017.4
20210727103330 68 140 0.0 0.0 0.00 0.01 0.00 71 1017.4
20210727102830 68 140 0.0 0.0 0.00 0.01 0.00 72 1017.6
20210727102330 68 140 0.0 0.0 0.00 0.01 0.00 72 1017.6
20210727101830 69 140 0.0 0.0 0.00 0.01 0.00 72 1017.6
20210727101330 69 140 0.0 0.0 0.00 0.01 0.00 71 1017.7
20210727100830 69 140 0.0 0.0 0.00 0.01 0.00 71 1017.7
20210727100330 69 140 0.0 0.0 0.00 0.01 0.00 70 1017.8
20210727095830 69 140 0.0 0.0 0.00 0.01 0.00 70 1017.9
20210727095330 68 140 0.0 0.0 0.00 0.01 0.00 69 1018.0
20210727094830 68 140 0.0 0.0 0.00 0.01 0.00 69 1018.1
20210727094330 68 140 0.0 0.0 0.00 0.01 0.00 70 1018.1
20210727093830 68 140 0.0 0.0 0.00 0.01 0.00 70 1018.2
20210727093330 69 140 0.0 0.0 0.00 0.01 0.00 72 1018.3
20210727092830 69 140 0.0 0.0 0.00 0.01 0.00 72 1018.4
20210727092330 69 140 0.0 0.0 0.00 0.01 0.00 72 1018.4
20210727091830 69 140 0.0 0.0 0.00 0.01 0.00 71 1018.6
20210727091330 69 140 0.0 0.0 0.00 0.01 0.00 70 1018.5
20210727090830 69 140 0.0 0.0 0.00 0.01 0.00 69 1018.6
20210727090330 69 140 0.0 0.0 0.00 0.01 0.00 68 1018.6
20210727085830 69 140 0.0 0.0 0.00 0.01 0.00 68 1018.7
20210727085330 70 140 0.0 0.0 0.00 0.01 0.00 68 1018.8
20210727084830 70 140 0.0 0.0 0.00 0.01 0.00 67 1018.8
20210727084330 70 140 0.0 0.0 0.00 0.01 0.00 66 1018.8
20210727083830 70 140 0.0 0.0 0.00 0.01 0.00 66 1019.0
20210727083330 70 140 0.0 0.0 0.00 0.01 0.00 65 1019.1
20210727082830 70 140 0.0 0.0 0.00 0.01 0.00 64 1019.2
20210727082330 70 140 0.0 0.0 0.00 0.01 0.00 65 1019.2
20210727081830 70 140 0.0 1.0 0.00 0.01 0.00 65 1019.2
20210727081330 69 140 0.0 0.0 0.00 0.01 0.00 65 1019.2
20210727080830 69 140 0.0 0.0 0.00 0.01 0.00 66 1019.2
20210727080330 69 140 0.0 0.0 0.00 0.01 0.00 67 1019.3
20210727075831 69 140 0.0 0.0 0.00 0.01 0.00 68 1019.5
20210727075330 70 140 0.0 0.0 0.00 0.01 0.00 69 1019.5
20210727074830 70 140 0.0 0.0 0.00 0.01 0.00 68 1019.5
20210727074330 70 140 0.0 0.0 0.00 0.01 0.00 68 1019.6
20210727073830 70 140 0.0 0.0 0.00 0.01 0.00 68 1019.7
20210727073330 70 140 0.0 0.0 0.00 0.01 0.00 67 1019.8
20210727072830 71 140 0.0 0.0 0.00 0.01 0.00 67 1019.9
20210727072330 71 140 0.0 0.0 0.00 0.01 0.00 66 1019.9
20210727071830 71 140 0.0 0.0 0.00 0.01 0.00 66 1020.1
20210727071330 71 140 0.0 0.0 0.00 0.01 0.00 65 1020.1
20210727070830 72 140 0.0 0.0 0.00 0.02 0.00 65 1020.2
20210727070330 72 140 0.0 0.0 0.00 0.02 0.00 63 1020.3
20210727065830 72 140 0.0 0.0 0.00 0.02 0.00 62 1020.4
20210727065330 72 140 0.0 0.0 0.00 0.02 0.00 61 1020.3
20210727064830 72 140 0.0 2.0 0.00 0.02 0.00 61 1020.4
20210727064330 72 140 1.0 2.0 0.00 0.02 0.00 61 1020.4
20210727063830 72 140 0.0 3.0 0.00 0.02 0.00 61 1020.4
20210727063330 72 140 0.0 3.0 0.00 0.02 0.00 61 1020.5
20210727062830 72 140 0.0 3.0 0.00 0.02 0.00 62 1020.5
20210727062330 72 140 0.0 3.0 0.00 0.02 0.00 62 1020.5
20210727061830 72 140 0.0 3.0 0.00 0.02 0.00 63 1020.6
20210727061330 72 140 0.0 4.0 0.00 0.02 0.00 64 1020.6
20210727060830 71 140 2.0 3.0 0.00 0.02 0.00 64 1020.9
20210727060330 71 140 2.0 4.0 0.00 0.02 0.00 64 1020.9
20210727055830 71 140 2.0 4.0 0.00 0.02 0.00 65 1020.8
20210727055330 70 140 1.0 5.0 0.01 0.02 0.00 67 1020.9
20210727054830 70 140 0.0 0.0 0.01 0.02 0.00 70 1020.9
20210727054330 70 140 0.0 0.0 0.01 0.02 0.00 71 1021.0
20210727053830 70 140 0.0 2.0 0.01 0.02 0.00 71 1020.9
20210727053330 71 140 0.0 2.0 0.01 0.02 0.00 72 1021.0
20210727052830 71 140 0.0 0.0 0.01 0.02 0.00 73 1021.0
20210727052330 71 140 0.0 0.0 0.01 0.02 0.00 71 1021.0
20210727051830 71 140 0.0 0.0 0.01 0.02 0.00 69 1021.0
20210727051330 71 140 0.0 0.0 0.01 0.02 0.00 67 1021.0
20210727050830 72 140 0.0 1.0 0.01 0.02 0.00 65 1020.9
20210727050330 72 140 0.0 4.0 0.01 0.03 0.00 65 1021.0
20210727045830 73 140 3.0 5.0 0.01 0.03 0.00 64 1020.8
20210727045330 73 140 3.0 4.0 0.00 0.03 0.00 63 1020.9
20210727044830 74 140 0.0 5.0 0.00 0.03 0.00 61 1021.0
20210727044330 75 140 0.0 4.0 0.00 0.03 0.00 61 1020.9
20210727043830 75 140 1.0 4.0 0.00 0.03 0.00 59 1021.0
20210727043330 76 140 0.0 3.0 0.00 0.03 0.00 53 1020.9
20210727042831 76 140 0.0 1.0 0.00 0.03 0.00 48 1020.9
20210727042330 76 140 0.0 0.0 0.00 0.03 0.00 47 1020.9
20210727041830 76 140 0.0 0.0 0.00 0.03 0.00 47 1020.9
20210727041330 76 140 0.0 0.0 0.00 0.03 0.00 46 1020.9
20210727040830 76 140 0.0 0.0 0.00 0.03 0.00 45 1020.8
20210727040330 76 140 0.0 0.0 0.00 0.03 0.00 45 1020.7
20210727035830 77 140 0.0 0.0 0.00 0.03 0.00 44 1020.7
20210727035330 77 140 0.0 0.0 0.00 0.03 0.00 45 1020.6
20210727034830 77 140 0.0 0.0 0.00 0.03 0.00 44 1020.7
20210727034330 77 140 0.0 0.0 0.00 0.03 0.00 44 1020.5
20210727033830 77 140 0.0 0.0 0.00 0.03 0.00 44 1020.4
20210727033330 77 140 0.0 0.0 0.00 0.03 0.00 44 1020.4
20210727032830 77 140 0.0 0.0 0.00 0.03 0.00 44 1020.3
20210727032330 77 140 0.0 0.0 0.00 0.03 0.00 44 1020.3
20210727031830 77 140 0.0 2.0 0.00 0.03 0.00 44 1020.0
20210727031330 77 140 0.0 5.0 0.00 0.03 0.00 43 1019.8
20210727030830 78 140 0.0 3.0 0.00 0.03 0.00 43 1019.8
20210727030330 78 140 0.0 6.0 0.00 0.03 0.00 43 1019.7
20210727025830 78 140 2.0 4.0 0.00 0.03 0.00 43 1019.8
20210727025331 78 140 0.0 3.0 0.00 0.03 0.00 43 1019.8
20210727024830 78 140 0.0 4.0 0.00 0.03 0.00 44 1019.8
20210727024330 78 140 1.0 2.0 0.00 0.03 0.00 44 1019.7
20210727023830 78 140 0.0 4.0 0.00 0.03 0.00 45 1019.6
20210727023330 78 140 3.0 5.0 0.00 0.03 0.00 46 1019.5
20210727022830 78 140 2.0 8.0 0.00 0.03 0.00 46 1019.6
20210727022330 79 140 1.0 9.0 0.00 0.03 0.00 46 1019.5
20210727021830 80 145 5.0 8.0 0.00 0.03 0.00 43 1019.2
20210727021330 80 150 3.0 3.0 0.00 0.03 0.00 44 1019.0
20210727020830 81 150 3.0 5.0 0.00 0.03 0.00 42 1019.1
20210727020330 81 150 1.0 3.0 0.00 0.03 0.00 41 1019.0
20210727015830 81 150 0.0 2.0 0.00 0.03 0.00 38 1018.9
20210727015330 81 150 0.0 1.0 0.00 0.03 0.00 37 1018.8
20210727014830 81 150 1.0 4.0 0.00 0.03 0.00 38 1018.5
20210727014330 81 150 0.0 3.0 0.00 0.03 0.00 38 1018.3
20210727013830 81 150 0.0 3.0 0.00 0.03 0.00 38 1018.1
20210727013330 82 150 0.0 4.0 0.00 0.03 0.00 38 1017.9
20210727012830 82 150 0.0 4.0 0.00 0.03 0.00 38 1017.8
20210727012331 83 150 0.0 7.0 0.00 0.03 0.00 38 1017.8
20210727011830 83 148 6.0 6.0 0.00 0.03 0.00 38 1017.7
20210727011330 84 148 1.0 6.0 0.00 0.03 0.00 38 1017.7
20210727010830 84 148 0.0 7.0 0.00 0.03 0.00 37 1017.6
20210727010330 85 147 0.0 9.0 0.00 0.03 0.00 36 1017.5
20210727005830 86 142 2.0 9.0 0.00 0.03 0.00 35 1017.5
20210727005330 87 142 1.0 4.0 0.00 0.03 0.00 34 1017.3
20210727004830 87 142 1.0 8.0 0.00 0.03 0.00 33 1017.3
20210727004331 88 142 0.0 2.0 0.00 0.03 0.00 32 1017.1
20210727003830 88 142 0.0 2.0 0.00 0.03 0.00 31 1017.0
20210727003330 88 142 0.0 3.0 0.00 0.03 0.00 32 1017.0
20210727002830 89 142 0.0 3.0 0.00 0.03 0.00 30 1017.0
20210727002330 89 142 3.0 4.0 0.00 0.03 0.00 31 1016.9
20210727001830 89 142 0.0 6.0 0.00 0.03 0.00 30 1016.7
20210727001330 89 142 4.0 8.0 0.00 0.03 0.00 31 1016.7
20210727000830 89 142 0.0 4.0 0.00 0.03 0.00 30 1016.7
20210727000331 89 142 0.0 4.0 0.00 0.03 0.00 30 1016.5
20210726235830 89 142 0.0 4.0 0.00 0.03 0.00 29 1016.4
20210726235330 90 142 0.0 2.0 0.00 0.03 0.00 29 1016.3
20210726234831 90 142 0.0 2.0 0.00 0.03 0.00 29 1016.2
20210726234330 90 142 0.0 3.0 0.00 0.03 0.00 28 1016.2
20210726233830 91 142 0.0 0.0 0.00 0.03 0.00 27 1016.1
20210726233330 91 142 0.0 1.0 0.00 0.03 0.00 28 1016.1
20210726232830 91 142 1.0 1.0 0.00 0.03 0.00 28 1016.0
20210726232330 91 142 0.0 1.0 0.00 0.03 0.00 27 1015.9
20210726231830 91 142 0.0 6.0 0.00 0.03 0.00 28 1016.0
20210726231330 92 142 1.0 5.0 0.00 0.03 0.00 27 1016.0
20210726230830 92 142 1.0 2.0 0.00 0.03 0.00 27 1015.9
20210726230330 92 142 3.0 3.0 0.00 0.03 0.00 28 1016.0
20210726225830 92 142 1.0 5.0 0.00 0.03 0.00 28 1016.0
20210726225330 91 142 1.0 5.0 0.00 0.03 0.00 27 1015.9
20210726224830 91 142 0.0 2.0 0.00 0.03 0.00 29 1015.8
20210726224330 91 142 0.0 3.0 0.00 0.03 0.00 31 1015.9
20210726223830 90 142 0.0 1.0 0.00 0.03 0.00 32 1015.9
20210726223330 90 142 0.0 4.0 0.00 0.03 0.00 31 1015.8
20210726222830 90 142 4.0 4.0 0.00 0.03 0.00 30 1015.7
20210726222330 90 142 0.0 3.0 0.00 0.03 0.00 30 1015.8
20210726221830 91 142 0.0 4.0 0.00 0.03 0.00 31 1015.7
20210726221330 91 142 1.0 4.0 0.00 0.03 0.00 32 1015.7
20210726220830 91 142 1.0 4.0 0.00 0.03 0.00 31 1015.8
20210726220330 91 142 0.0 4.0 0.00 0.03 0.00 30 1016.0
20210726215830 91 142 1.0 3.0 0.00 0.03 0.00 30 1015.9
20210726215330 91 142 4.0 4.0 0.00 0.03 0.00 29 1015.9
20210726214830 91 142 2.0 6.0 0.00 0.03 0.00 31 1015.9
20210726214330 91 142 0.0 6.0 0.00 0.03 0.00 31 1016.0
20210726213830 90 142 0.0 6.0 0.00 0.03 0.00 31 1016.2
20210726213330 90 142 3.0 5.0 0.00 0.03 0.00 32 1016.2
20210726212830 90 142 1.0 2.0 0.00 0.03 0.00 31 1016.2
20210726212330 90 142 0.0 7.0 0.00 0.03 0.00 31 1016.2
20210726211830 90 142 0.0 3.0 0.00 0.03 0.00 32 1016.1
20210726211330 90 142 3.0 5.0 0.00 0.03 0.00 31 1016.1